Miscellaneous Local Product
Issued by NWS North Platte, NE

Home | Current Version | Previous Version | Graphics & Text | Print | Product List | Glossary On
Versions: 1 2 3 4 5 6 7 8 9 10 11 12 13 14 15 16 17 18 19 20 21 22 23 24 25 26 27 28 29 30 31 32 33 34 35 36 37 38 39 40 41 42 43 44 45 46 47 48 49 50
257
AXUS43 KLBF 201610
MISLBF


WESTERN AND NORTH CENTRAL NEBRASKA HOURLY WEATHER ROUNDUP
NATIONAL WEATHER SERVICE NORTH PLATTE NE
1100 AM CDT FRI OCT 20 2017

NOTE: "FAIR" INDICATES FEW OR NO CLOUDS BELOW 12,000 FEET WITH NO
SIGNIFICANT WEATHER AND/OR OBSTRUCTIONS TO VISIBILITY.

NOTE: STATIONS NOT REPORTING VARIABLES SUCH AS SKY/WEATHER OR
PRESSURE ARE PROVIDED BY RAWS AND APRS NETWORKS AND ARE NOT UNDER
NATIONAL WEATHER SERVICE QUALITY CONTROL.

...OBSERVATIONS IN AND NEAR THE EASTERN PANHANDLE OF NEBRASKA...

CITY           SKY/WX    TMP DP  RH WIND       PRES   REMARKS
PINE RIDGE     SUNNY     63  46  54 S16G22    29.60F
GORDON         FAIR      60  47  63 SW10      29.63F
CHADRON        CLOUDY    68  38  33 SW9       29.59F
ALLIANCE       CLOUDY    55  45  68 S8        29.66F
SIDNEY         CLOUDY    61  39  44 W6        29.69F
CRESCENT LAKE    N/A     55  47  76 S6G13       N/A
$$

...OBSERVATIONS IN NORTHERN NEBRASKA AND FAR SOUTHERN SOUTH DAKOTA...

CITY           SKY/WX    TMP DP  RH WIND       PRES   REMARKS
WINNER         FAIR      65  50  58 S23G32    29.60F
VALENTINE      CLOUDY    66  49  54 SW25      29.64F
THEDFORD       SUNNY     62  51  66 S22G28    29.69F
AINSWORTH      SUNNY     63  51  65 S22G28    29.68F
O`NEILL        CLOUDY    65  53  63 S20G25    29.73F
ORD              N/A     64  51  62 S21G30    29.75F
BROKEN BOW     SUNNY     62  51  67 S21G32    29.75F
VALENTINE NWR    N/A     60  48  64 S16G24      N/A
HALSEY           N/A     60  49  67 S12G22      N/A
BUTTE            N/A     65  52  62 S20G26      N/A
CHAMBERS         N/A     65  52  62 S7          N/A
EWING            N/A     64  53  68 S12G22      N/A
$$

...OBSERVATIONS IN SOUTHWEST NEBRASKA AND FAR NORTHEAST COLORADO...

CITY           SKY/WX    TMP DP  RH WIND       PRES   REMARKS
HOLYOKE        FAIR      61  50  67 S10       29.69F
IMPERIAL       CLOUDY    63  51  65 S17       29.70F
OGALLALA       CLOUDY    63  52  67 S15       29.69F
NORTH PLATTE   CLOUDY    59  50  72 SE8       29.72F
MCCOOK         MOSUNNY   63  51  65 S15G24    29.73F
LEXINGTON      SUNNY     60  51  70 S12G17    29.76F
STAPLETON        N/A     61  51  70 MISG        N/A
GOTHENBURG       N/A     58  46  64 SE9         N/A
CALLAWAY         N/A     57  49  76 S14         N/A
$$

...OBSERVATIONS IN CENTRAL LINCOLN COUNTY AREA...

CITY           SKY/WX    TMP DP  RH WIND       PRES   REMARKS
N.P. AIRPORT   CLOUDY    59  50  72 SE8       29.72F
N.P. DOWNTOWN    N/A     61  52  71 S3          N/A
N.P. HILLCREST   N/A     61  52  71 S15         N/A
$$

...SOME OBSERVATIONS FROM AROUND THE REGION...

CITY           SKY/WX    TMP DP  RH WIND       PRES   REMARKS
DENVER         CLOUDY    65  30  27 S12       29.73F
LIMON          CLOUDY    64  35  34 W10       29.76F
ASPEN          CLOUDY    50  33  52 CALM      29.92F
LARAMIE        CLOUDY    57  32  38 SW17      29.79F
CASPER         CLOUDY    62  34  35 SW22G32   29.62F
CHEYENNE       CLOUDY    65  33  30 W13       29.76F
SCOTTSBLUFF    CLOUDY    53  42  66 VRB6      29.66F
GRAND ISLAND   MOSUNNY   64  54  69 S23G31    29.81F
OMAHA          CLOUDY    65  54  67 S17G23    29.92F
SIOUX FALLS    MOSUNNY   65  53  65 S23G33    29.76F
PIERRE         SUNNY     63  49  60 S18       29.52F
RAPID CITY     CLOUDY    68  34  28 S10       29.52F
BISMARCK       SUNNY     65  48  54 S9        29.43F
KANSAS CITY    PTSUNNY   67  56  67 S14       30.05F
HILL CITY      MOSUNNY   66  53  63 S21G35    29.78F
WICHITA        MOSUNNY   70  60  70 S26G36    29.96F
DODGE CITY     SUNNY     69  53  56 S28G40    29.84F
OKLAHOMA CITY  CLOUDY    70  57  63 S20G28    30.03F
DALLAS         PTSUNNY   73  60  63 S7        30.08F
AMARILLO       CLOUDY    65  54  67 S23G32    29.95F
$$




USA.gov is the U.S. government's official web portal to all federal, state and local government web resources and services.